Simultaneous Nadir Overpasses (SNOs) Predictions

Prediction of SNOs near US between AQUA and NPP Satellite Orbit:

Table of predicted SNOs near US for the next 10.0 days since TLE Epoch: 10/3/2014
Index Date (AQUA) Time (AQUA) AQUA Lat,Lon Date (NPP) Time (NPP) NPP Lat,Lon Distance(km) Time Diff (sec)
1 10/04/2014 17:26:56 47.25, -66.77 10/04/2014 17:27:42 47.01, -67.99 96.49 46
2 10/04/2014 19:03:18 38.24, -88.42 10/04/2014 19:06:35 37.91, -90.11 152.19 197
3 10/04/2014 20:39:40 29.18,-110.62 10/04/2014 20:45:28 28.75,-112.80 217.81 348
4 10/07/2014 06:56:20 20.05, -77.19 10/07/2014 06:53:19 19.94, -76.76 46.55 181
5 10/07/2014 08:31:33 33.29, -98.58 10/07/2014 08:31:01 33.28, -98.60 1.05 32
6 10/07/2014 10:05:47 49.93,-117.73 10/07/2014 10:07:43 49.98,-118.03 22.62 116
7 10/09/2014 19:24:59 49.97, -97.19 10/09/2014 19:16:39 50.38, -96.43 70.69 500
8 10/09/2014 21:03:52 49.98,-121.91 10/09/2014 20:58:03 50.03,-121.65 20.13 349
9 10/12/2014 18:14:26 41.15, -76.92 10/12/2014 18:16:54 40.87, -78.44 131.30 148
10 10/12/2014 19:50:48 32.11, -98.97 10/12/2014 19:55:47 31.72,-100.98 194.02 299




NCC Satellite Simultaneous Nadir Overpasses (SNOs) Prediction Service
